Location: Avon School (historical)
(37.7514°N, 90.2201°W)
Time: 12:34:38
(UTC+00:00)

Transit 2A Rocket - Pass Details

Date: 14 December 2025
Orbit: 581 x 903 km, 66.7° (Epoch: 13 January)

Event Time Altitude Azimuth Distance (km) Brightness Sun altitude
Rises 00:13:22 0° 322° (NW) 3,509 8.7 -17.3°
Reaches altitude 10° 00:16:10 10° 313° (NW) 2,541 8.1 -17.9°
Maximum altitude 00:21:20 32° 252° (WSW) 1,408 7.1 -18.9°
Drops below altitude 10° 00:26:11 10° 190° (S) 2,379 7.8 -19.8°
Sets 00:28:44 0° 181° (S) 3,253 8.4 -20.3°
